Temperature
7 8 8 8 8 8 7 7 7 7 8 9 10 9 9 8 8 8 8 9 9 9 8 8 8 8 8 8 8 7 7 7 7 6 7 6 6 5 6 6 6 6 5 5
7 8 9 8 9 9 9 8 8 8 8 10 10 9 8 8 7 8 8 8 8 8 7 7 7 7 7 6 6 6 6 5 5 5 5 5 5 5 5 5 5 4 4 3
7 9 9 9 10 10 9 9 9 8 9 10 9 8 7 6 6 6 6 7 7 7 6 6 5 5 5 5 4 4 4 3 3 4 4 4 4 4 4 4 4 3 3 2
7 8 8 11 11 11 10 10 10 9 9 9 9 7 5 4 4 4 5 5 5 5 5 4 4 4 3 3 2 2 2 2 2 3 3 4 4 4 3 3 2 2 2 1
7 8 9 12 11 11 9 9 10 9 9 9 8 7 5 3 3 3 3 3 3 3 3 3 2 2 1 1 1 0 0 1 2 3 3 3 3 3 2 2 2 1 1 1
7 7 8 11 11 11 9 9 10 9 8 8 8 7 5 2 2 2 2 2 2 2 1 1 0 0 0 -0 0 0 1 1 2 3 3 3 2 2 2 1 1 1 0 -0
7 7 9 12 12 11 9 10 10 9 8 7 6 4 3 1 1 1 1 0 0 0 -0 -0 -0 0 0 1 1 1 2 2 2 2 2 2 2 1 1 1 0 0 -0 -1
7 7 8 12 12 11 10 10 9 8 7 6 4 3 2 1 1 0 -0 -0 -0 -0 -0 -0 0 1 1 1 1 2 2 2 2 2 2 1 1 1 0 0 -0 -1 -2 -2
9 9 12 13 12 11 10 9 8 7 7 6 4 2 1 1 1 1 0 0 0 0 0 0 1 2 3 2 2 2 2 2 1 1 1 1 0 -0 -0 -1 -1 -2 -3 -3
10 11 12 12 11 10 8 7 6 6 6 5 4 2 1 1 1 1 1 1 1 1 1 1 2 2 3 2 2 2 2 1 1 1 0 -0 -1 -1 -1 -2 -2 -3 -3 -4
10 11 12 11 9 8 7 6 5 5 5 4 4 2 2 1 1 1 1 1 2 3 3 2 2 2 2 2 2 2 1 1 0 -0 -1 -1 -1 -2 -2 -3 -3 -4 -4 -5
10 11 10 10 9 8 7 6 5 4 4 3 3 2 2 1 1 1 2 2 3 3 3 2 2 2 1 1 1 1 0 -0 -1 -1 -1 -1 -2 -2 -3 -4 -4 -5 -6 -6
11 11 10 9 8 7 6 5 4 4 4 3 2 3 3 2 2 2 3 3 3 3 3 2 2 1 0 0 0 0 -0 -1 -1 -1 -2 -2 -3 -3 -4 -4 -5 -6 -7 -8
11 10 10 9 8 7 6 5 4 4 3 3 3 3 3 2 2 2 3 3 3 3 2 2 1 1 -0 -0 -0 -1 -1 -1 -2 -2 -3 -3 -4 -4 -5 -6 -6 -7 -8 -9
10 9 9 8 7 6 5 5 4 3 3 3 3 3 3 3 3 3 3 3 3 2 2 1 1 -0 -1 -1 -1 -1 -1 -2 -2 -3 -3 -4 -4 -5 -6 -7 -7 -8 -8 -9
9 8 8 7 7 6 5 4 4 4 4 3 3 3 3 3 3 3 2 2 2 2 1 0 0 -1 -1 -1 -1 -2 -2 -3 -3 -4 -4 -5 -5 -6 -7 -8 -8 -9 -9 -10
7 7 7 6 6 5 5 5 5 5 5 4 4 4 3 3 3 2 2 1 1 1 -0 -0 -1 -1 -1 -2 -2 -3 -3 -4 -4 -4 -5 -6 -6 -7 -8 -8 -9 -9 -10 -10
6 6 7 7 7 5 4 4 5 5 5 5 4 4 3 3 3 2 1 1 0 -0 -1 -1 -1 -2 -2 -3 -3 -3 -4 -4 -5 -5 -6 -7 -7 -8 -8 -9 -9 -10 -10 -10
5 5 6 6 6 5 5 5 5 6 5 5 4 4 3 3 2 1 0 -0 -0 -1 -1 -2 -2 -2 -3 -3 -4 -4 -4 -5 -5 -6 -7 -7 -8 -9 -9 -10 -10 -10 -10 -11
4 4 5 5 5 4 4 5 5 5 5 5 4 4 3 2 1 0 -0 -1 -1 -1 -1 -2 -3 -3 -3 -4 -4 -4 -5 -5 -6 -7 -7 -8 -9 -9 -10 -10 -10 -11 -11 -11
3 4 4 4 4 4 4 5 5 5 5 5 4 4 3 1 0 0 -0 -1 -1 -2 -2 -3 -3 -3 -4 -4 -4 -5 -5 -6 -7 -7 -8 -9 -9 -10 -10 -10 -11 -11 -11 -11
2 3 3 3 3 3 3 4 4 5 5 4 4 3 2 1 -0 -0 -1 -1 -1 -2 -2 -3 -3 -4 -4 -5 -5 -5 -6 -7 -7 -8 -8 -9 -9 -10 -10 -11 -11 -11 -11 -11
2 2 2 2 2 2 2 3 3 4 5 4 4 3 2 1 1 0 -1 -1 -2 -2 -3 -3 -4 -4 -5 -5 -5 -6 -7 -7 -8 -8 -9 -9 -10 -10 -11 -11 -11 -11 -11 -11
1 1 1 1 1 1 1 1 2 3 4 4 3 2 2 1 0 -1 -1 -2 -2 -3 -3 -4 -4 -5 -5 -5 -6 -7 -7 -8 -8 -9 -9 -10 -10 -10 -11 -11 -11 -11 -11 -11
0 -0 -0 -0 -1 -1 0 1 1 2 2 2 2 1 1 1 1 -0 -1 -2 -3 -3 -4 -4 -4 -5 -5 -6 -6 -7 -8 -8 -9 -9 -10 -10 -10 -10 -11 -11 -11 -11 -11 -11
-1 -1 -2 -2 -2 -1 -1 -0 1 1 2 2 1 1 0 -0 -1 -1 -2 -3 -3 -4 -4 -4 -5 -5 -6 -6 -7 -7 -8 -8 -9 -9 -10 -10 -10 -11 -11 -11 -11 -11 -11 -10
-1 -2 -2 -3 -3 -2 -2 -1 0 1 2 2 2 0 -0 -1 -2 -2 -3 -3 -4 -4 -4 -5 -5 -6 -6 -7 -7 -8 -8 -9 -9 -10 -10 -10 -10 -10 -11 -10 -10 -10 -10 -10
Wind_Speed
10 12 11 13 15 14 16 17 16 20 27 30 24 20 15 12 12 11 10 7 4 1 2 3 4 7 11 12 13 13 14 13 13 14 15 15 15 14 14 13 14 12 11 9
8 13 14 16 17 17 16 16 17 22 23 17 15 12 10 9 9 8 6 4 2 3 6 6 7 10 12 12 11 12 13 13 15 16 16 16 15 14 14 13 12 11 9 8
4 7 9 8 7 6 7 9 11 11 12 15 13 10 9 10 9 7 5 3 3 6 7 8 9 11 11 11 11 12 13 14 15 17 17 16 16 15 14 12 10 9 7 6
5 7 4 1 6 4 7 10 9 11 13 12 9 5 7 9 8 7 5 5 7 9 11 11 11 12 12 12 13 14 14 14 15 16 17 15 15 14 11 9 8 7 6 5
3 5 8 5 3 2 4 6 3 7 11 10 7 1 6 12 10 7 7 8 10 11 12 12 12 13 14 14 14 14 14 14 14 15 16 15 14 11 9 8 7 6 5 4
3 4 4 2 2 2 1 4 1 6 9 9 8 4 5 9 11 11 11 11 12 12 14 13 13 14 16 15 15 15 14 14 13 13 14 13 11 9 7 7 6 5 3 2
6 5 7 6 1 1 3 4 6 5 6 5 4 3 4 7 9 10 11 12 12 13 13 12 13 14 16 15 14 14 14 13 13 12 12 11 9 7 7 6 5 3 2 1
5 6 7 3 2 3 4 4 4 4 2 4 6 7 7 8 9 9 10 11 12 12 13 12 12 14 15 15 13 13 14 14 12 10 9 9 8 7 6 5 3 2 1 1
7 7 5 3 2 3 3 4 4 3 3 7 8 7 8 8 9 9 9 10 10 12 14 12 11 12 16 13 12 13 14 13 11 10 9 7 7 6 4 4 3 3 3 3
4 7 7 2 4 5 5 4 4 3 4 6 9 9 9 8 8 8 9 9 10 12 14 13 11 11 12 12 12 13 13 11 9 8 7 7 6 5 4 4 4 4 4 4
6 8 5 4 5 4 5 4 5 6 7 9 10 10 9 8 8 8 9 9 10 12 14 14 12 12 11 10 11 13 11 9 8 7 6 6 5 4 4 4 4 3 2 3
4 1 2 2 4 4 5 6 6 8 9 9 9 10 10 9 8 9 10 10 11 13 14 12 11 11 10 9 10 11 9 7 6 5 5 4 4 3 2 1 1 2 3 4
4 1 2 3 4 5 6 7 7 8 9 10 9 10 10 10 9 10 11 11 12 13 13 12 11 11 9 9 9 10 9 7 5 5 5 4 4 4 4 3 4 5 6 8
1 1 2 3 5 7 8 9 9 10 10 9 10 10 10 11 11 12 11 11 12 13 12 12 12 11 9 9 10 10 8 8 7 5 5 4 4 4 3 3 4 4 6 10
1 0 2 7 8 8 8 9 10 10 10 10 9 10 11 12 13 11 10 11 12 13 12 11 12 10 8 9 9 9 7 5 5 4 4 4 4 3 3 4 4 4 4 6
3 4 5 7 8 8 8 9 10 11 10 11 11 11 11 12 12 11 9 9 11 12 10 10 10 8 8 8 9 7 6 8 6 4 4 4 4 4 4 4 4 4 5 5
3 3 5 6 8 9 8 8 10 11 11 12 13 13 13 13 12 11 10 10 11 11 9 9 8 8 8 8 7 5 5 5 6 5 4 3 3 4 4 4 4 5 5 8
6 6 7 7 9 10 10 10 10 11 12 14 14 13 13 13 13 12 11 11 12 11 9 8 8 8 8 8 6 5 4 4 3 3 3 3 3 3 3 4 5 5 5 8
6 4 4 7 9 10 10 11 12 12 13 14 14 12 11 11 12 11 10 10 11 9 6 7 11 9 7 7 6 4 4 3 3 3 3 5 4 4 4 4 5 5 6 7
4 2 2 6 8 9 11 12 13 13 13 13 14 14 13 11 11 11 10 8 6 6 7 8 8 7 6 5 5 4 4 3 3 3 3 3 3 4 4 5 5 5 6 6
5 2 3 6 8 9 11 13 14 14 13 13 14 14 13 11 10 10 10 8 6 8 8 10 6 5 5 4 5 4 3 3 3 3 3 3 4 4 4 5 5 7 7 7
5 2 4 6 8 9 9 10 11 13 14 13 13 14 14 12 10 9 7 6 7 11 7 5 5 6 5 4 3 3 3 3 3 3 3 3 4 4 4 5 5 6 6 6
4 3 4 6 7 8 9 9 10 11 13 14 15 15 13 11 9 9 8 6 6 10 7 5 7 7 5 3 2 2 2 2 3 3 3 4 4 4 5 6 5 6 6 7
4 3 4 6 7 8 9 8 9 9 11 10 10 11 12 11 7 5 7 13 13 11 6 8 8 5 4 2 2 2 2 3 3 3 4 4 4 4 5 5 6 6 6 8
4 3 4 6 6 6 7 10 12 12 12 10 10 9 7 6 7 8 8 9 13 11 6 7 6 4 2 1 1 2 3 3 4 4 4 4 4 5 5 6 6 6 7 7
1 1 2 3 4 6 6 8 8 9 11 11 9 7 7 8 10 9 8 9 10 10 6 4 3 2 1 1 2 3 3 4 5 4 4 5 6 6 6 6 8 7 7 8
1 2 3 4 5 5 5 6 8 10 10 12 11 8 9 9 9 9 9 8 6 5 4 3 2 1 1 2 3 3 4 4 4 5 5 5 5 6 6 7 7 7 7 7
Wind_Direction
265 278 273 259 258 249 243 248 259 272 280 289 298 303 305 300 287 277 280 283 280 238 150 118 99 93 95 97 101 110 118 123 124 123 121 119 119 118 115 112 109 107 107 105
269 260 258 261 259 256 256 256 259 274 283 288 301 306 318 323 314 296 286 290 290 130 122 115 105 99 97 98 102 112 119 123 122 121 119 117 115 112 107 105 104 105 107 111
279 304 300 268 238 235 251 262 268 279 291 311 318 334 352 347 342 334 328 343 83 106 105 103 101 103 104 105 107 113 118 121 121 120 118 116 115 111 109 109 108 109 116 123
292 311 279 182 152 203 268 278 273 281 298 312 324 356 24 10 358 353 8 54 81 91 91 90 94 98 101 103 107 111 114 116 117 117 114 112 110 109 109 112 116 119 120 117
275 288 277 271 150 227 275 284 291 308 317 328 330 333 41 19 19 32 50 68 80 87 93 94 97 102 106 106 108 110 111 111 112 113 114 113 112 113 116 116 116 119 122 121
253 281 274 336 112 147 222 263 353 336 327 338 347 351 9 20 35 54 63 74 85 91 95 96 99 104 107 108 108 109 110 110 110 111 111 112 114 113 111 112 115 116 114 112
235 254 272 291 319 240 290 302 331 333 335 357 36 55 59 57 58 67 75 81 88 93 97 102 107 109 110 110 111 114 114 112 109 108 109 110 107 104 105 106 109 113 127 214
201 224 253 271 338 293 287 312 322 333 15 86 102 90 82 80 80 82 88 94 100 104 106 108 112 113 111 111 116 116 112 107 103 100 103 102 99 96 93 92 89 84 34 350
205 229 265 312 283 309 0 329 343 3 87 120 117 107 98 88 84 86 90 95 99 104 104 102 104 111 111 111 112 109 104 101 98 94 91 93 94 91 83 71 58 39 23 14
271 270 280 330 50 45 43 17 14 49 108 122 119 115 107 100 94 89 85 88 93 96 96 94 92 95 102 106 106 105 101 98 95 93 87 79 77 71 64 60 48 34 23 13
256 274 284 94 65 55 68 65 66 68 84 110 119 117 112 106 101 97 92 88 93 99 99 97 96 93 94 98 102 99 95 91 87 85 88 81 75 70 64 72 83 52 15 3
246 321 7 45 69 75 92 89 95 98 94 97 110 116 113 107 103 101 99 99 101 100 99 97 93 88 83 86 93 98 94 86 82 80 75 71 63 48 93 88 45 346 322 319
265 327 93 115 93 90 101 100 100 105 108 107 105 110 112 110 106 104 104 104 104 102 100 95 89 81 74 77 83 86 89 87 80 73 67 56 43 33 12 344 319 311 313 317
3 146 223 169 131 108 105 103 101 99 98 102 108 110 112 110 106 105 105 105 104 101 97 93 87 78 72 78 82 81 77 72 74 68 58 49 38 24 14 5 348 339 340 334
312 155 106 108 108 110 115 118 116 113 112 110 112 114 115 114 111 107 104 104 102 97 94 91 87 77 71 77 79 76 71 63 62 61 52 39 25 11 4 357 342 331 331 337
64 76 111 131 140 142 144 143 137 133 129 125 119 114 112 111 108 104 98 101 105 101 96 92 86 78 75 78 81 77 70 63 55 46 44 33 17 6 1 353 342 337 334 327
176 200 189 179 172 170 168 157 148 143 136 129 124 121 119 115 108 100 93 90 95 95 93 94 90 80 72 72 78 84 85 67 49 45 41 27 6 360 355 347 338 333 327 327
257 242 199 189 182 176 164 147 143 141 136 131 130 130 128 124 120 115 110 104 97 88 81 88 91 82 71 65 69 73 78 73 56 45 24 14 356 340 338 339 335 330 326 329
285 261 213 183 172 165 155 148 144 137 134 137 137 132 124 121 121 121 117 113 111 107 103 105 104 89 79 66 70 70 71 60 44 34 18 352 354 353 347 335 328 325 325 327
339 340 151 146 145 146 145 142 139 138 141 139 132 127 125 126 127 124 114 103 107 123 125 115 100 95 89 72 70 68 60 49 30 10 359 347 339 334 331 330 328 322 320 319
355 16 110 126 128 132 140 144 145 145 143 140 139 137 135 131 127 123 119 112 106 117 120 118 104 101 93 88 72 66 51 32 13 357 345 336 330 327 325 325 323 320 317 317
351 28 106 121 126 130 135 140 143 142 140 137 134 135 135 133 127 114 106 125 133 132 118 107 105 111 109 89 71 63 38 9 348 335 328 325 322 317 312 310 306 305 305 305
359 49 100 120 128 129 127 133 139 142 141 143 145 147 144 139 136 133 127 130 132 133 119 114 124 121 106 83 70 41 2 336 326 324 316 306 298 294 294 297 295 297 299 301
20 58 89 106 116 127 132 130 124 123 124 126 132 136 137 132 117 103 126 141 142 127 115 130 130 120 101 79 49 0 329 316 309 302 296 293 292 292 291 292 293 293 294 297
44 71 99 119 128 130 126 123 120 122 122 122 117 113 112 118 126 128 125 133 136 123 113 128 129 116 88 52 356 319 303 289 282 286 290 300 298 294 289 287 287 290 293 294
38 95 118 124 123 127 137 140 141 140 137 133 125 114 110 111 116 119 117 116 122 126 122 114 114 106 69 345 310 298 293 301 313 311 297 291 287 287 287 289 290 290 290 290
99 107 105 103 119 138 147 151 152 153 151 146 137 130 126 123 121 119 117 116 116 120 123 125 121 101 323 299 293 293 295 293 290 287 286 284 282 282 284 287 287 288 289 290
Height
1452 1448 1447 1448 1447 1446 1449 1447 1442 1428 1418 1406 1400 1396 1392 1388 1385 1383 1382 1382 1382 1381 1382 1383 1385 1386 1387 1390 1393 1397 1402 1407 1411 1415 1419 1425 1430 1436 1442 1448 1453 1457 1461 1464
1448 1441 1438 1437 1434 1433 1432 1431 1427 1421 1411 1402 1397 1392 1388 1385 1382 1380 1380 1379 1379 1379 1380 1382 1384 1385 1387 1390 1394 1399 1403 1407 1410 1414 1419 1425 1431 1437 1443 1448 1453 1456 1460 1462
1445 1434 1433 1431 1422 1423 1423 1420 1419 1415 1407 1399 1394 1391 1389 1386 1382 1380 1379 1378 1378 1378 1380 1382 1384 1386 1389 1392 1396 1400 1404 1407 1410 1415 1420 1426 1433 1439 1444 1448 1453 1456 1459 1460
1446 1440 1435 1420 1415 1417 1418 1414 1411 1408 1403 1398 1394 1392 1390 1387 1384 1381 1380 1379 1379 1379 1380 1382 1385 1387 1390 1394 1398 1402 1405 1408 1412 1417 1422 1429 1435 1440 1445 1449 1452 1455 1456 1457
1446 1439 1429 1415 1413 1414 1415 1412 1407 1405 1400 1396 1392 1390 1390 1389 1385 1383 1381 1381 1381 1381 1382 1385 1387 1390 1392 1396 1400 1404 1408 1412 1416 1421 1426 1432 1437 1441 1445 1449 1452 1453 1454 1455
1444 1440 1431 1414 1411 1410 1414 1410 1405 1403 1399 1396 1392 1391 1395 1392 1388 1385 1384 1383 1383 1384 1386 1388 1391 1393 1395 1399 1404 1407 1412 1416 1421 1426 1430 1434 1439 1443 1446 1449 1451 1452 1452 1452
1441 1438 1425 1411 1409 1410 1414 1409 1403 1401 1399 1397 1397 1399 1398 1395 1392 1389 1388 1388 1388 1388 1390 1393 1395 1398 1400 1404 1408 1412 1417 1421 1425 1429 1434 1438 1442 1445 1447 1449 1450 1450 1450 1450
1434 1434 1426 1407 1407 1408 1407 1402 1401 1399 1398 1397 1398 1399 1398 1397 1396 1394 1393 1393 1393 1393 1395 1398 1401 1403 1406 1409 1414 1418 1422 1426 1430 1435 1438 1442 1444 1446 1447 1448 1448 1448 1448 1447
1421 1419 1408 1404 1404 1403 1402 1400 1399 1398 1397 1397 1398 1399 1400 1400 1400 1400 1400 1400 1401 1401 1402 1406 1409 1411 1412 1416 1420 1424 1428 1431 1435 1438 1441 1443 1444 1445 1446 1447 1446 1446 1445 1444
1413 1407 1403 1402 1402 1401 1399 1398 1397 1397 1397 1397 1398 1399 1401 1402 1403 1404 1406 1406 1407 1408 1409 1412 1416 1418 1420 1423 1426 1430 1432 1435 1438 1440 1442 1444 1445 1445 1445 1445 1445 1444 1442 1441
1410 1405 1402 1401 1401 1400 1398 1397 1397 1396 1397 1397 1398 1400 1402 1404 1405 1407 1409 1411 1412 1413 1415 1418 1421 1424 1426 1429 1432 1434 1436 1438 1440 1442 1443 1444 1445 1445 1444 1444 1443 1442 1440 1438
1407 1403 1403 1402 1400 1399 1398 1397 1397 1397 1397 1399 1400 1401 1403 1405 1407 1409 1411 1414 1416 1418 1420 1423 1426 1428 1431 1434 1436 1437 1439 1441 1442 1443 1444 1444 1444 1444 1443 1442 1441 1439 1437 1435
1401 1401 1401 1400 1399 1398 1398 1397 1397 1398 1398 1400 1402 1403 1405 1407 1410 1412 1415 1417 1420 1422 1425 1427 1430 1432 1435 1437 1439 1440 1441 1442 1443 1444 1444 1444 1443 1442 1441 1440 1439 1436 1434 1432
1399 1399 1399 1398 1398 1398 1397 1397 1398 1399 1400 1402 1403 1406 1408 1409 1412 1415 1418 1420 1423 1426 1429 1431 1433 1436 1438 1440 1441 1442 1443 1444 1444 1444 1444 1443 1442 1441 1439 1437 1436 1434 1432 1429
1397 1397 1397 1396 1397 1397 1397 1398 1399 1400 1402 1404 1406 1408 1410 1412 1414 1418 1421 1424 1427 1429 1432 1435 1437 1439 1441 1442 1443 1444 1444 1444 1444 1444 1443 1442 1441 1439 1437 1435 1433 1431 1429 1426
1395 1394 1394 1395 1395 1395 1396 1398 1399 1401 1403 1405 1408 1410 1413 1415 1418 1421 1425 1428 1430 1432 1435 1437 1439 1441 1443 1444 1445 1445 1445 1445 1444 1443 1442 1441 1439 1437 1435 1433 1431 1428 1425 1423
1393 1392 1392 1392 1393 1394 1395 1397 1399 1401 1403 1406 1409 1412 1415 1418 1421 1424 1427 1431 1433 1435 1438 1440 1441 1443 1444 1445 1445 1445 1445 1444 1444 1442 1441 1439 1437 1435 1433 1431 1428 1426 1423 1420
1389 1390 1390 1390 1390 1391 1393 1396 1399 1401 1404 1407 1410 1414 1417 1420 1422 1426 1429 1432 1435 1437 1440 1442 1443 1444 1445 1446 1445 1445 1444 1444 1442 1441 1439 1437 1435 1433 1431 1428 1426 1423 1420 1418
1385 1385 1386 1387 1387 1389 1391 1394 1397 1401 1404 1408 1411 1415 1418 1422 1425 1428 1431 1434 1436 1438 1441 1443 1444 1445 1445 1445 1445 1444 1444 1442 1441 1439 1437 1435 1433 1430 1428 1426 1423 1421 1418 1415
1382 1383 1384 1384 1386 1388 1390 1393 1397 1400 1404 1408 1412 1415 1419 1423 1426 1429 1432 1435 1438 1440 1442 1443 1444 1445 1445 1445 1444 1443 1442 1441 1439 1437 1435 1433 1430 1428 1426 1423 1421 1418 1416 1413
1382 1382 1383 1384 1385 1387 1390 1392 1396 1400 1404 1408 1412 1415 1419 1423 1426 1429 1432 1435 1438 1440 1442 1443 1444 1444 1444 1444 1443 1442 1441 1439 1437 1435 1432 1430 1428 1426 1423 1421 1418 1416 1414 1411
1383 1383 1383 1384 1385 1387 1389 1392 1396 1400 1403 1408 1412 1416 1419 1423 1426 1430 1433 1436 1438 1440 1441 1443 1443 1443 1443 1443 1442 1440 1439 1437 1435 1432 1430 1428 1425 1423 1421 1418 1416 1414 1411 1409
1384 1384 1384 1384 1385 1387 1389 1392 1396 1399 1403 1407 1411 1415 1419 1422 1425 1429 1432 1435 1437 1439 1441 1442 1442 1442 1442 1441 1440 1439 1437 1434 1432 1430 1428 1425 1423 1420 1418 1416 1413 1411 1409 1407
1385 1384 1385 1385 1386 1387 1389 1392 1395 1399 1403 1408 1412 1416 1419 1422 1426 1430 1433 1435 1437 1438 1440 1441 1441 1441 1441 1440 1438 1436 1434 1432 1430 1427 1425 1422 1420 1417 1415 1413 1411 1408 1406 1404
1385 1385 1385 1385 1386 1387 1389 1391 1394 1398 1403 1407 1411 1416 1420 1423 1426 1429 1431 1434 1436 1438 1439 1439 1440 1440 1439 1438 1436 1434 1432 1429 1427 1424 1422 1419 1417 1415 1412 1410 1408 1406 1404 1401
1385 1385 1385 1386 1386 1387 1389 1391 1393 1397 1401 1406 1410 1415 1419 1423 1426 1429 1431 1433 1435 1437 1438 1438 1438 1438 1437 1435 1433 1431 1429 1427 1424 1422 1419 1417 1414 1412 1410 1407 1405 1403 1401 1399
1385 1384 1384 1385 1386 1387 1389 1391 1394 1397 1401 1405 1409 1414 1418 1422 1425 1428 1430 1432 1434 1436 1436 1437 1436 1436 1434 1433 1431 1429 1426 1424 1421 1419 1416 1414 1412 1409 1407 1405 1403 1401 1398 1396